Regional Weather Roundup
Issued by NWS

Home | Current Version | Previous Version | Graphics & Text | Print | Product List | Glossary Off
Versions: 1 2 3 4 5 6 7 8 9 10 11 12 13 14 15 16 17 18 19 20 21 22 23 24 25 26 27 28 29 30 31 32 33 34 35 36 37 38 39 40 41 42 43 44 45 46 47 48 49 50

000
ASUS43 KMKX 050221
RWRWI

WISCONSIN REGIONAL WEATHER ROUNDUP
NATIONAL WEATHER SERVICE MILWAUKEE/SULLIVAN WI
900 PM CDT MON MAY 04 2015

NOTE: "FAIR" INDICATES FEW OR NO CLOUDS BELOW 12,000 FEET WITH NO
SIGNIFICANT WEATHER AND/OR OBSTRUCTIONS TO VISIBILITY.

WIZ001-002-006>008-014>016-023>028-050300-
NORTHWEST WISCONSIN

CITY           SKY/WX    TMP DP  RH WIND       PRES   REMARKS
SUPERIOR ARPT  CLEAR     52  26  36 CALM      30.20R
ASHLAND        PTCLDY    49  37  63 CALM      30.22R
HAYWARD        PTCLDY    53  30  41 CALM      30.21R
SIREN          PTCLDY    53  29  40 CALM      30.20R
CUMBERLAND     MOCLDY    57  27  30 NE3       30.19S
RICE LAKE      MOCLDY    59  28  30 NE3       30.20R
CHETEK         MOCLDY    56  40  54 N8        30.19R
LADYSMITH      MOCLDY    55  35  47 NE5       30.20R
EAU CLAIRE     MOCLDY    57  34  41 CALM      30.16S
MENOMONIE      MOCLDY    60  44  55 CALM      30.17S
NEW RICHMOND   MOCLDY    59  28  30 CALM      30.18S
OSCEOLA        MOCLDY    62  26  25 N5        30.20S
$$

WIZ003>005-009-010-017-018-050300-
NORTH CENTRAL WISCONSIN

CITY           SKY/WX    TMP DP  RH WIND       PRES   REMARKS
MANITOWISH WTR PTCLDY    46  32  58 CALM      30.23R
ARBOR VITAE    MOCLDY    52  25  35 N5        30.22S
WOODRUFF       MOCLDY    52  25  35 N5        30.22S
RHINELANDER    MOCLDY    57  24  28 N5        30.21R
EAGLE RIVER    PTCLDY    53  23  31 N6        30.22R
LAND O LAKES   PTCLDY    49  30  48 CALM      30.24R
PHILLIPS       PTCLDY    53  24  32 NE7       30.21R
TOMAHAWK       MOCLDY    57  24  28 CALM      30.21R
MEDFORD        MOCLDY    59  31  34 E3        30.19R
MERRILL        MOCLDY    58  33  39 NE3       30.19R
$$

WIZ029-030-035-036-043>047-050300-
CENTRAL WISCONSIN

CITY           SKY/WX    TMP DP  RH WIND       PRES   REMARKS
WAUSAU         MOCLDY    62  29  28 N3        30.17R
MOSINEE        CLEAR     61  30  31 N5        30.19
MARSHFIELD     MOCLDY    59  42  53 CALM      30.18R
STEVENS POINT  MOCLDY    55  38  51 N3        30.18R
WAUPACA        MOCLDY    60  41  50 E9        30.20R
WAUTOMA        CLOUDY    64  42  44 E10       30.19R
WISC RAPIDS    CLOUDY    58  38  47 N3        30.18R
CAMP DOUGLAS   MOCLDY    59  37  44 N2        30.15R
$$

WIZ011>013-019>022-031-037>040-048>050-050300-
NORTHEAST WISCONSIN

CITY           SKY/WX    TMP DP  RH WIND       PRES   REMARKS
ANTIGO         MOCLDY    56  43  63 SE13      30.21R
SHAWANO        MOCLDY    55  41  57 E6        30.22R
OCONTO         MOCLDY    52  41  65 E3        30.23R
STURGEON BAY   MOCLDY    50  32  50 E7        30.27R
GREEN BAY      MOCLDY    56  38  50 E8        30.22R
MANITOWOC      CLOUDY    54  38  54 NE5       30.22R
APPLETON       MOCLDY    63  36  36 SE8       30.20R
CLINTONVILLE   MOCLDY    55  39  54 E3        30.21R
OSHKOSH        MOCLDY    57  41  55 E9        30.19R
$$

WIZ032>034-041-042-053>061-050300-
SOUTHWEST WISCONSIN

CITY           SKY/WX    TMP DP  RH WIND       PRES   REMARKS
LA CROSSE      CLOUDY    63  40  42 N3        30.14R
SPARTA         MOCLDY    60  36  40 CALM      30.17R
VIROQUA        CLOUDY    62  42  48 N3        30.16R
BOSCOBEL       CLOUDY    67  52  58 CALM      30.13R
PRAIRIE DU CHI CLOUDY    67  49  51 CALM      30.12R
PLATTEVILLE    CLOUDY    67  55  66 NE6       30.13R
$$

WIZ056-057-062-063-064-067-068-050300-
SOUTH CENTRAL WISCONSIN

CITY           SKY/WX    TMP DP  RH WIND       PRES   REMARKS
REEDSBURG      MOCLDY    63  44  49 CALM      30.14R
BARABOO/DELLS  MOCLDY    63  45  52 E7        30.15R
LONE ROCK      CLOUDY    65  55  70 E6        30.13R
MINERAL POINT  CLOUDY    66  52  59 E5        30.14R
MADISON        MOCLDY    63  40  42 E12       30.16R
MIDDLETON      MOCLDY    65  42  41 SE13G18   30.16R
WATERTOWN      PTCLDY    57  38  49 E5        30.18R
MONROE         MOCLDY    63  52  67 E12G21    30.15R
JANESVILLE     NOT AVBL
$$

WIZ051-052-058>065-066-070>072-050300-
SOUTHEAST WISCONSIN

CITY           SKY/WX    TMP DP  RH WIND       PRES   REMARKS
MILWAUKEE      MOCLDY    51  35  54 CALM      30.20R
WAUKESHA       CLEAR     54  34  47 NE9       30.20R
MILWAUKEE/TIMM CLEAR     54  34  47 NE5       30.20
RACINE         PTCLDY    50  36  58 CALM      30.21R
BURLINGTON     MOCLDY    53  39  59 E5        30.19S
KENOSHA        MOCLDY    49  38  65 E6        30.19R
FOND DU LAC    MOCLDY    57  37  47 SE6       30.19R
SHEBOYGAN      MOCLDY    50  38  63 NE6       30.21R
WEST BEND      PTCLDY    54  36  50 CALM      30.20S
JUNEAU         MOCLDY    57  39  50 E7        30.20R
$$

LSZ147-162-050300-
LAKE SUPERIOR

STATION/POSITION TIME  TEMP    WIND        PRES    WAVE
                       AIR SEA DIR/SP/G            HT/PER
                 (UTC) (F)     (DEG/KT/KT) (MB)    (FT/S)
W MID LAKE BUOY  0150   41 36  230/  6/  8 1024.0R   0
DEVILS ISLAND    0200   57     170/  9/ 11 1023.5R
PORT WING        0100   55      50/  5/ 10 1022.4S
SAXON HARBOR     0100   55        CALM     1022.4
$$

LMZ867-665-643>646-050300-
LAKE MICHIGAN

STATION/POSITION TIME  TEMP    WIND        PRES    WAVE
                       AIR SEA DIR/SP/G            HT/PER
                 (UTC) (F)     (DEG/KT/KT) (MB)    (FT/S)
CHAMBERS ISLAND  0100   55      90/  5/  8 1023.4R
NORTHPORT PIER   0100   49     180/  3/  5 1023.0R
SISTER BAY       0132   47     130/  8/ 11   N/A
KEWAUNEE LAKESHO 0100   49      40/  8/ 11 1022.2R
SHEBOYGAN LAKESH 0200   46      10/  9/ 10 1023.3R
PORT WASHINGTON  0100   55     340/  3/  8 1022.7
ATWATER BUOY     0200   48     350/  6/  8 1023.7R
MILWAUKEE LAKESH 0200   53      10/  8/ 11   N/A
KENOSHA   LAKESH 0200   49     360/  4/  4 1022.4R
$$

TC  - TEMPERATURE IN CELSIUS
VSB - VISIBILITY IN STATUTE MILES
WCI - WIND CHILL INDEX
HX  - HEAT INDEX




USA.gov is the U.S. government's official web portal to all federal, state and local government web resources and services.